Adak, AK

12:21 PM HDT on May 24, 2017 (GMT -0900)
Adak

Weather History for PADK - December, 2012

Change the Weather History Date:

Saturday, December 22, 2012

  Actual Average Record
Temperature  
Mean Temperature 30 °F -  
Max Temperature 37 °F 37 °F 46 °F (1979)
Min Temperature 23 °F 29 °F 13 °F (1953)
Degree Days  
Heating Degree Days 35    
Moisture  
Dew Point 28 °F    
Average Humidity 80    
Maximum Humidity 93    
Minimum Humidity 65    
Precipitation  
Precipitation 0.00 in - - ()
Sea Level Pressure  
Sea Level Pressure 30.08 in    
Wind  
Wind Speed 10 mph (ENE)    
Max Wind Speed 22 mph    
Max Gust Speed 26 mph    
Visibility 10 miles    
Events      
Averages and records for this station are not official NWS values.
T = Trace of Precipitation, MM = Missing Value Source: NWS Daily Summary

Daily Weather History Graph

Daily Weather History Graph

Search for Another Location

Airport or City:

Trip Planner

Search our weather history database for the weather conditions in past years. The results will help you decide how hot, cold, wet, or windy it might be!

Date:

Astronomy

Dec. 22, 2012 Rise Set
Actual Time 9:52 AM HST 5:38 PM HST
Civil Twilight 9:11 AM HST 6:19 PM HST
Nautical Twilight 8:28 AM HST 7:03 PM HST
Astronomical Twilight 7:47 AM HST 7:44 PM HST
Moon 2:23 PM HST (12/22) 4:29 AM HST (12/22)
Length of Visible Light 9h 07m
Length of Day
7h 46m
Waxing Gibbous, 75% of the Moon is Illuminated
Dec 22
Waxing Gibbous
Dec 28
Full
Jan 4
Last Quarter
Jan 11
New
Jan 18
First Quarter

Hourly Weather History & Observations

Time (HST) Temp. Windchill Dew Point Humidity Pressure Visibility Wind Dir Wind Speed Gust Speed Precip Events Conditions
12:16 AM 24.8 °F 17.9 °F 21.2 °F 86% 30.07 in 10.0 mi WSW 5.8 mph - N/A   Clear
12:36 AM 24.8 °F 17.9 °F 21.2 °F 86% 30.07 in 10.0 mi SW 5.8 mph - N/A   Clear
12:56 AM 24.8 °F 16.9 °F 21.2 °F 86% 30.08 in 10.0 mi SW 6.9 mph - N/A   Clear
1:16 AM 24.8 °F - 23.0 °F 93% 30.08 in 10.0 mi Calm Calm - N/A   Clear
1:36 AM 26.6 °F - 24.8 °F 93% 30.07 in 10.0 mi Calm Calm - N/A   Clear
1:56 AM 24.8 °F 19.1 °F 21.2 °F 86% 30.07 in 10.0 mi SW 4.6 mph - N/A   Clear
2:16 AM 24.8 °F - 23.0 °F 93% 30.08 in 10.0 mi Calm Calm - N/A   Clear
2:36 AM 24.8 °F - 21.2 °F 86% 30.07 in 10.0 mi Calm Calm - N/A   Clear
2:56 AM 24.8 °F - 23.0 °F 93% 30.07 in 10.0 mi Calm Calm - N/A   Clear
3:16 AM 24.8 °F - 21.2 °F 86% 30.07 in 10.0 mi Calm Calm - N/A   Clear
3:36 AM 24.8 °F 20.5 °F 21.2 °F 86% 30.07 in 10.0 mi NW 3.5 mph - N/A   Clear
3:56 AM 24.8 °F 19.1 °F 21.2 °F 86% 30.07 in 10.0 mi NNW 4.6 mph - N/A   Clear
4:16 AM 23.0 °F 17.0 °F 19.4 °F 86% 30.08 in 10.0 mi WSW 4.6 mph - N/A   Clear
4:36 AM 24.8 °F 19.1 °F 21.2 °F 86% 30.08 in 10.0 mi WSW 4.6 mph - N/A   Scattered Clouds
4:56 AM 24.8 °F 20.5 °F 21.2 °F 86% 30.08 in 10.0 mi WSW 3.5 mph - N/A   Partly Cloudy
5:16 AM 26.6 °F 20.0 °F 24.8 °F 93% 30.08 in 10.0 mi NNW 5.8 mph - N/A   Partly Cloudy
5:36 AM 28.4 °F 20.4 °F 26.6 °F 93% 30.08 in 10.0 mi North 8.1 mph - N/A   Mostly Cloudy
5:56 AM 28.4 °F 21.2 °F 24.8 °F 86% 30.07 in 10.0 mi North 6.9 mph - N/A   Partly Cloudy
6:16 AM 28.4 °F 21.2 °F 26.6 °F 93% 30.07 in 10.0 mi North 6.9 mph - N/A   Partly Cloudy
6:36 AM 30.2 °F 25.4 °F 26.6 °F 86% 30.07 in 10.0 mi North 4.6 mph - N/A   Clear
6:56 AM 30.2 °F 26.7 °F 26.6 °F 86% 30.07 in 10.0 mi North 3.5 mph - N/A   Partly Cloudy
7:16 AM 32.0 °F 24.8 °F 30.2 °F 93% 30.06 in 10.0 mi ENE 8.1 mph - N/A   Scattered Clouds
7:36 AM 35.6 °F 28.6 °F 30.2 °F 81% 30.06 in 10.0 mi ENE 9.2 mph - N/A   Scattered Clouds
7:56 AM 35.6 °F 26.2 °F 30.2 °F 81% 30.06 in 10.0 mi East 15.0 mph - N/A   Clear
8:16 AM 35.6 °F 25.5 °F 30.2 °F 81% 30.06 in 10.0 mi East 17.3 mph - N/A   Clear
8:36 AM 35.6 °F 25.2 °F 30.2 °F 81% 30.06 in 10.0 mi East 18.4 mph 24.2 mph N/A   Scattered Clouds
8:56 AM 35.6 °F 24.2 °F 30.2 °F 81% 30.06 in 10.0 mi East 21.9 mph - N/A   Partly Cloudy
9:16 AM 35.6 °F 24.8 °F 30.2 °F 81% 30.07 in 10.0 mi ENE 19.6 mph - N/A   Scattered Clouds
9:36 AM 35.6 °F 25.9 °F 30.2 °F 81% 30.07 in 10.0 mi East 16.1 mph - N/A   Overcast
9:56 AM 35.6 °F 24.8 °F 30.2 °F 81% 30.07 in 10.0 mi East 19.6 mph 25.3 mph N/A   Scattered Clouds
10:16 AM 35.6 °F 24.5 °F 30.2 °F 81% 30.08 in 10.0 mi East 20.7 mph 24.2 mph N/A   Scattered Clouds
10:36 AM 35.6 °F 24.2 °F 30.2 °F 81% 30.09 in 10.0 mi East 21.9 mph - N/A   Partly Cloudy
10:56 AM 35.6 °F 25.2 °F 30.2 °F 81% 30.09 in 10.0 mi East 18.4 mph - N/A   Clear
11:16 AM 35.6 °F 24.8 °F 30.2 °F 81% 30.10 in 10.0 mi East 19.6 mph - N/A   Clear
11:36 AM 37.4 °F 27.5 °F 30.2 °F 75% 30.11 in 10.0 mi East 18.4 mph - N/A   Clear
11:56 AM 37.4 °F 26.6 °F 30.2 °F 75% 30.10 in 10.0 mi East 21.9 mph - N/A   Clear
12:16 PM 37.4 °F 27.8 °F 30.2 °F 75% 30.10 in 10.0 mi East 17.3 mph - N/A   Clear
12:36 PM 37.4 °F 26.9 °F 30.2 °F 75% 30.09 in 10.0 mi East 20.7 mph - N/A   Clear
12:56 PM 37.4 °F 26.9 °F 30.2 °F 75% 30.08 in 10.0 mi East 20.7 mph - N/A   Clear
1:16 PM 37.4 °F 27.5 °F 30.2 °F 75% 30.07 in 10.0 mi ENE 18.4 mph - N/A   Clear
1:36 PM 37.4 °F 26.9 °F 30.2 °F 75% 30.07 in 10.0 mi East 20.7 mph - N/A   Clear
1:56 PM 37.4 °F 26.9 °F 30.2 °F 75% 30.07 in 10.0 mi East 20.7 mph - N/A   Clear
2:16 PM 37.4 °F 27.2 °F 30.2 °F 75% 30.07 in 10.0 mi East 19.6 mph - N/A   Clear
2:36 PM 37.4 °F 27.2 °F 30.2 °F 75% 30.07 in 10.0 mi East 19.6 mph - N/A   Clear
2:56 PM 37.4 °F 27.5 °F 30.2 °F 75% 30.06 in 10.0 mi East 18.4 mph - N/A   Clear
3:16 PM 37.4 °F 27.2 °F 30.2 °F 75% 30.06 in 10.0 mi East 19.6 mph - N/A   Clear
3:36 PM 37.4 °F 27.8 °F 30.2 °F 75% 30.06 in 10.0 mi East 17.3 mph - N/A   Clear
3:56 PM 37.4 °F 27.8 °F 30.2 °F 75% 30.06 in 10.0 mi East 17.3 mph - N/A   Clear
4:16 PM 37.4 °F 27.8 °F 30.2 °F 75% 30.06 in 10.0 mi ENE 17.3 mph - N/A   Clear
4:36 PM 37.4 °F 27.5 °F 30.2 °F 75% 30.06 in 10.0 mi ENE 18.4 mph - N/A   Clear
4:56 PM 37.4 °F 27.5 °F 30.2 °F 75% 30.06 in 10.0 mi ENE 18.4 mph - N/A   Clear
5:16 PM 37.4 °F 26.6 °F 30.2 °F 75% 30.06 in 10.0 mi East 21.9 mph - N/A   Clear
5:36 PM 35.6 °F 25.5 °F 28.4 °F 75% 30.07 in 10.0 mi East 17.3 mph 26.5 mph N/A   Clear
5:56 PM 35.6 °F 28.0 °F 28.4 °F 75% 30.07 in 10.0 mi NNE 10.4 mph - N/A   Clear
6:16 PM 35.6 °F 25.9 °F 30.2 °F 81% 30.07 in 10.0 mi East 16.1 mph - N/A   Clear
6:36 PM 37.4 °F 28.9 °F 30.2 °F 75% 30.07 in 10.0 mi NNE 13.8 mph - N/A   Clear
6:56 PM 33.8 °F 26.4 °F 28.4 °F 81% 30.08 in 10.0 mi NNE 9.2 mph - N/A   Clear
7:16 PM 35.6 °F 25.5 °F 28.4 °F 75% 30.08 in 10.0 mi East 17.3 mph 23.0 mph N/A   Clear
7:36 PM 35.6 °F 28.6 °F 28.4 °F 75% 30.08 in 10.0 mi NNE 9.2 mph - N/A   Partly Cloudy
7:56 PM 35.6 °F 29.2 °F 30.2 °F 81% 30.08 in 10.0 mi NE 8.1 mph - N/A   Partly Cloudy
8:16 PM 37.4 °F 28.2 °F 30.2 °F 75% 30.08 in 10.0 mi East 16.1 mph - N/A   Clear
8:36 PM 35.6 °F 28.6 °F 28.4 °F 75% 30.08 in 10.0 mi NNE 9.2 mph - N/A   Clear
8:56 PM 37.4 °F 26.9 °F 26.6 °F 65% 30.09 in 10.0 mi East 20.7 mph 24.2 mph N/A   Clear
9:16 PM 37.4 °F 28.9 °F 30.2 °F 75% 30.10 in 10.0 mi NE 13.8 mph 25.3 mph N/A   Partly Cloudy
9:36 PM 33.8 °F 27.0 °F 28.4 °F 81% 30.10 in 10.0 mi NE 8.1 mph - N/A   Partly Cloudy
9:56 PM 35.6 °F 25.2 °F 30.2 °F 81% 30.10 in 10.0 mi East 18.4 mph 21.9 mph N/A   Scattered Clouds
10:16 PM 37.4 °F 28.5 °F 30.2 °F 75% 30.09 in 10.0 mi NNE 15.0 mph 25.3 mph N/A   Partly Cloudy
10:36 PM 33.8 °F 25.3 °F 26.6 °F 75% 30.10 in 10.0 mi NNE 11.5 mph - N/A   Clear
10:56 PM 35.6 °F 26.2 °F 28.4 °F 75% 30.10 in 10.0 mi East 15.0 mph - N/A   Partly Cloudy
11:16 PM 35.6 °F 28.0 °F 28.4 °F 75% 30.10 in 10.0 mi NNE 10.4 mph 23.0 mph N/A   Clear
11:36 PM 33.8 °F 27.0 °F 26.6 °F 75% 30.09 in 10.0 mi NE 8.1 mph - N/A   Clear
11:56 PM 35.6 °F 29.9 °F 26.6 °F 70% 30.09 in 10.0 mi ENE 6.9 mph - N/A   Clear